Location: Darmstadt
(49.8706°N, 8.6494°E)
Time: 07:28:47
(UTC+01:00)

Cosmos 1992 Rocket - Pass Details

Date: 31 October 2020
Orbit: 759 x 766 km, 74.0° (Epoch: 03 December)

Event Time Altitude Azimuth Distance (km) Brightness Sun altitude
Rises 18:56:38 0° 207° (SSW) 3,207 7.6 -18.6°
Reaches altitude 10° 18:59:00 10° 210° (SSW) 2,285 6.8 -19.0°
Maximum altitude 19:04:11 74° 295° (WNW) 794 4.1 -19.8°
Drops below altitude 10° 19:09:24 10° 21° (NNE) 2,301 6.3 -20.7°
Enters shadow 19:10:15 - 22° (NNE) 2,624 6.6 -20.8°
